Theta_e
335 335 335 331 332 332 332 333 334 341 347 348 346 343 341 339 334 333 329 327 327 325
327 330 329 332 335 336 334 335 335 337 344 347 346 345 342 339 335 334 331 329 327 326
321 325 328 331 329 333 337 336 336 335 338 345 346 346 343 341 338 334 333 332 330 327
312 315 318 319 322 330 333 332 337 338 334 334 344 345 342 341 340 336 334 333 331 329
313 314 314 313 316 321 323 329 333 335 338 340 339 340 342 341 341 338 334 334 332 330
309 310 311 314 316 316 319 323 326 331 331 332 333 335 339 340 342 340 337 334 332 331
310 309 311 314 315 315 317 320 323 323 326 326 328 331 335 337 338 339 340 336 333 332
311 311 312 313 314 314 316 318 320 321 321 321 326 329 329 333 333 333 337 338 335 333
313 312 312 312 312 313 314 316 318 319 319 319 324 317 316 319 328 330 329 330 336 333
313 312 312 312 312 312 311 313 316 317 317 318 320 314 312 314 322 321 323 325 327 335
313 312 312 311 311 310 311 311 312 314 317 318 319 312 310 311 317 318 320 323 327 330
314 313 313 312 311 311 310 311 311 314 316 316 317 310 308 309 317 317 319 323 325 328
314 313 313 312 312 312 312 311 313 312 313 314 315 309 306 308 315 315 316 320 325 319
313 313 313 313 313 313 312 312 311 311 313 314 313 314 307 305 313 314 314 316 320 325
Wind_Speed
5 2 3 6 7 8 7 8 7 8 13 16 15 14 12 10 9 11 12 16 13 10
4 4 4 6 5 8 9 8 11 9 11 15 14 16 15 10 11 10 14 16 15 12
2 3 4 4 7 7 7 7 9 12 12 12 13 14 14 14 13 11 11 11 13 15
4 4 6 5 5 6 6 7 7 8 10 13 12 14 14 16 16 16 16 16 15 16
6 9 9 6 7 6 7 6 6 6 6 9 10 13 15 17 17 19 19 20 18 19
7 7 8 10 12 7 7 7 6 4 4 7 8 11 12 15 18 20 21 21 21 23
11 9 8 9 9 9 12 9 8 7 6 6 7 9 11 12 15 19 19 20 21 23
8 7 8 8 9 11 13 14 9 8 7 7 6 6 10 12 13 14 18 21 22 23
8 7 8 9 7 8 11 13 15 12 8 9 6 10 13 13 12 11 14 17 20 21
9 10 10 8 9 12 12 12 12 13 11 9 9 12 14 15 9 12 13 16 16 19
12 12 11 8 11 11 11 13 14 15 13 12 9 15 17 16 11 11 14 15 17 16
13 14 13 13 13 12 11 12 14 14 15 13 13 14 16 14 11 11 13 15 17 18
15 15 15 15 14 13 11 13 12 16 15 17 18 14 17 13 7 10 10 14 16 19
15 15 14 13 13 13 14 14 14 16 15 15 14 15 17 14 7 7 9 11 12 12
Wind_Direction
344 301 260 241 246 248 245 257 259 228 226 227 220 223 218 214 214 210 215 213 214 217
20 349 349 334 292 268 259 253 261 244 228 227 223 220 218 217 218 215 216 214 211 204
277 283 269 277 305 321 306 279 260 262 255 241 230 221 214 221 219 207 210 218 228 223
330 304 310 304 288 281 290 299 304 275 264 262 252 231 225 228 226 216 216 219 214 214
327 329 320 280 274 275 279 283 288 305 318 301 280 259 238 236 233 227 222 222 223 220
311 304 294 303 306 299 287 278 274 264 262 277 300 305 300 283 248 234 226 223 218 225
314 303 293 291 286 295 301 282 273 264 260 274 289 291 292 294 289 261 241 226 220 222
293 296 302 299 295 301 299 289 265 266 264 254 260 283 291 294 292 296 279 238 223 220
288 286 289 293 294 309 301 299 293 270 257 272 267 269 275 282 287 290 287 291 246 227
293 294 291 281 298 301 299 298 289 279 276 267 267 266 269 270 274 287 284 279 279 257
307 295 288 278 284 285 288 294 296 286 269 262 257 254 265 266 278 277 279 276 272 269
307 303 297 296 290 281 283 285 290 287 279 266 263 253 258 265 275 277 281 285 279 266
309 304 296 293 293 286 280 275 282 284 278 270 271 264 261 255 262 278 287 289 281 268
312 307 300 297 298 297 292 287 284 282 279 272 266 266 260 253 255 267 288 291 288 277